Miscellaneous Local Product
Issued by NWS North Platte, NE

Home | Current Version | Previous Version | Graphics & Text | Print | Product List | Glossary On
Versions: 1 2 3 4 5 6 7 8 9 10 11 12 13 14 15 16 17 18 19 20 21 22 23 24 25 26 27 28 29 30 31 32 33 34 35 36 37 38 39 40 41 42 43 44 45 46 47 48 49 50
717
AXUS43 KLBF 200210
MISLBF


WESTERN AND NORTH CENTRAL NEBRASKA HOURLY WEATHER ROUNDUP
NATIONAL WEATHER SERVICE NORTH PLATTE NE
800 PM CST SUN FEB 19 2017

NOTE: "FAIR" INDICATES FEW OR NO CLOUDS BELOW 12,000 FEET WITH NO
SIGNIFICANT WEATHER AND/OR OBSTRUCTIONS TO VISIBILITY.

NOTE: STATIONS NOT REPORTING VARIABLES SUCH AS SKY/WEATHER OR
PRESSURE ARE PROVIDED BY RAWS AND APRS NETWORKS AND ARE NOT UNDER
NATIONAL WEATHER SERVICE QUALITY CONTROL.

...OBSERVATIONS IN AND NEAR THE EASTERN PANHANDLE OF NEBRASKA...

CITY           SKY/WX    TMP DP  RH WIND       PRES   REMARKS
PINE RIDGE     CLOUDY    52  35  52 E3        29.57S
CHADRON        CLOUDY    52  34  50 W6        29.57R
ALLIANCE       CLOUDY    46  34  62 SE5       29.58R
SIDNEY         CLOUDY    52  35  52 S10       29.60R
CRESCENT LAKE    N/A     56  38  50 SW6         N/A
$$

...OBSERVATIONS IN NORTHERN NEBRASKA AND FAR SOUTHERN SOUTH DAKOTA...

CITY           SKY/WX    TMP DP  RH WIND       PRES   REMARKS
WINNER         FAIR      59  42  53 SE6       29.58F
VALENTINE      MOCLDY    55  39  54 W3        29.60R
THEDFORD       CLOUDY    59  46  62 SE10      29.64S
AINSWORTH      LGT RAIN  60  47  62 S33G44    29.63S
O`NEILL        MOCLDY    60  48  65 S15G21    29.67R
ORD            PTCLDY    59  47  64 SE14      29.69R
BROKEN BOW     PTCLDY    61  47  59 S16G25    29.67S
VALENTINE NWR    N/A     55  42  61 S8          N/A
HALSEY           N/A     56  48  73 SE8G25      N/A
CHAMBERS         N/A     57  48  71 S3          N/A
EWING            N/A     57  50  77 S7          N/A
$$

...OBSERVATIONS IN SOUTHWEST NEBRASKA AND FAR NORTHEAST COLORADO...

CITY           SKY/WX    TMP DP  RH WIND       PRES   REMARKS
HOLYOKE        FAIR      61  32  33 S25G33    29.58S
IMPERIAL       MOCLDY    63  33  32 S25G32    29.59F
OGALLALA       CLOUDY    62  40  43 SE15      29.58R
NORTH PLATTE   PTCLDY    63  50  62 S14       29.64R
MCCOOK         PTCLDY    64  49  57 S18       29.67R
LEXINGTON      CLOUDY    60  47  61 SE21      29.69S
STAPLETON        N/A     56  48  73 CALM        N/A
GOTHENBURG       N/A     62  45  53 SE10        N/A
CALLAWAY         N/A     57  46  66 S20         N/A
$$

...OBSERVATIONS IN CENTRAL LINCOLN COUNTY AREA...

CITY           SKY/WX    TMP DP  RH WIND       PRES   REMARKS
N.P. AIRPORT   PTCLDY    63  50  62 S14       29.64R
N.P. DOWNTOWN    N/A     63  51  64 SE7G17      N/A
N.P. SOUTHEAST   N/A     62  50  66 S10G20      N/A
N.P. HILLCREST   N/A     60  51  71 S10         N/A
$$

...SOME OBSERVATIONS FROM AROUND THE REGION...

CITY           SKY/WX    TMP DP  RH WIND       PRES   REMARKS
LARAMIE        CLOUDY    36  33  89 E6        29.71R WCI  31
CHEYENNE       CLOUDY    44  34  67 NW13G22   29.66R
DENVER         CLOUDY    55  25  31 NW22G28   29.61R
AKRON          CLOUDY    57  24  28 S23G35    29.59R
SCOTTSBLUFF    CLOUDY    50  32  50 NW8       29.58R
RAPID CITY     CLOUDY    57  32  38 SW12      29.53R
BISMARCK       CLOUDY    37  35  92 E8        29.53R WCI  31
PIERRE         MOCLDY    59  38  45 S10       29.53R
SIOUX FALLS    CLOUDY    58  50  75 S17       29.70S
OMAHA          CLOUDY    60  50  69 S10       29.80S
GRAND ISLAND   CLOUDY    55  49  80 S17       29.76R
KANSAS CITY    CLOUDY    63  54  72 S8        29.88S
WICHITA        CLOUDY    63  57  81 SE12      29.84S
OKLAHOMA CITY  CLOUDY    64  61  90 SE17      29.81F FOG
DALLAS         MOCLDY    72  66  81 SE17      29.81S
AMARILLO       CLOUDY    54  41  61 S12       29.83S
DODGE CITY     CLOUDY    59  52  77 SE13      29.77R
HAYS           PTCLDY    57  52  83 S16       29.77S
GOODLAND       MOCLDY    60  33  36 SE26G35   29.65F
$$




USA.gov is the U.S. government's official web portal to all federal, state and local government web resources and services.